RH
10 7 8 14 29 48 94 100 100 100 100 100 100 100 99 95 98 97 100 100 99 100 100 100 100 100 100 100 90 74 49 35 29 9 5 14 16 11 6 7 5 4 6
16 37 55 62 91 100 100 100 100 100 100 92 35 26 31 40 43 26 22 28 86 100 98 100 100 100 99 100 95 75 63 40 26 24 5 13 16 15 6 5 4 5 6
71 93 100 99 99 100 100 100 100 72 22 29 35 48 54 57 60 65 69 46 61 99 100 87 99 100 99 100 99 84 65 51 35 23 6 13 17 17 6 4 5 6 6
96 98 98 99 100 100 100 88 24 31 38 39 54 62 65 82 88 88 100 85 44 30 68 97 90 99 99 100 98 82 74 66 58 24 7 16 17 17 6 5 6 6 5
94 99 100 99 100 93 22 12 24 37 38 45 59 76 74 100 100 98 100 98 76 100 72 83 100 93 100 100 95 84 93 64 49 27 8 18 17 15 8 7 7 7 4
98 99 100 99 55 9 10 22 29 32 36 61 64 82 50 100 100 100 100 100 83 95 100 60 100 90 96 100 89 99 98 62 49 25 9 18 16 14 10 13 10 7 5
99 100 100 87 12 9 20 32 35 32 60 56 77 70 29 87 100 94 100 99 92 85 100 100 95 66 57 87 100 99 87 38 35 21 12 17 16 15 15 13 10 5 7
100 100 99 21 8 13 29 28 33 47 65 58 82 90 73 55 44 47 75 100 95 86 100 100 100 99 53 69 91 100 70 40 25 14 16 16 14 15 15 13 7 5 34
100 99 79 13 9 13 20 30 39 46 71 70 90 97 100 69 100 72 78 100 93 88 100 100 100 100 100 100 100 88 50 33 26 11 16 15 13 13 14 11 22 13 48
91 98 69 28 9 12 23 32 34 53 58 73 88 99 100 91 64 100 83 95 92 90 100 100 100 100 100 100 86 60 40 32 17 14 15 13 12 13 12 47 80 96 99
97 99 73 59 8 9 26 30 33 41 47 56 63 96 100 100 81 65 100 77 90 72 98 99 100 100 87 58 55 57 45 27 13 15 14 12 10 13 11 15 40 96 82
100 100 96 23 8 9 11 13 19 21 21 33 52 73 100 99 100 60 61 72 81 66 88 76 88 71 68 51 77 76 35 14 14 14 12 10 9 11 11 10 20 60 86
100 100 99 41 16 9 10 11 15 23 25 15 45 63 82 74 96 100 63 68 69 79 95 80 71 66 60 71 72 24 13 14 14 12 10 8 9 11 10 20 81 97 95
100 100 100 98 49 9 9 10 11 15 18 18 12 49 48 46 62 87 100 88 71 74 47 44 56 59 66 43 15 12 13 13 12 10 8 7 9 12 38 70 99 94 56
100 99 100 100 99 56 9 8 10 11 14 16 11 12 26 32 34 49 48 46 55 68 68 62 56 38 16 12 11 12 12 12 10 8 6 8 11 11 36 83 86 79 95
100 100 98 100 100 93 28 7 8 11 12 13 14 12 11 13 20 34 37 33 29 25 20 16 12 11 10 10 10 11 11 10 8 6 6 8 8 12 36 39 46 53 83
70 100 100 100 100 100 63 12 6 8 11 12 11 12 12 12 13 14 16 15 13 11 9 8 8 8 8 8 9 9 8 7 5 5 5 6 7 14 30 64 69 69 75
38 66 99 100 99 100 98 52 16 11 9 8 9 10 11 11 11 11 11 9 8 9 8 7 7 6 6 7 7 7 6 4 4 5 7 36 66 79 86 98 97 86 81
43 37 73 96 100 100 100 98 77 57 21 8 7 6 7 9 9 9 8 7 6 6 6 5 5 5 6 6 6 5 10 20 18 17 62 86 81 73 89 99 97 91 91
42 41 36 42 87 100 100 100 100 100 94 64 17 7 5 5 5 6 6 6 5 4 4 4 5 5 6 5 8 35 74 76 69 70 76 83 84 91 86 92 92 94 96
40 46 43 39 33 41 87 100 100 99 100 100 79 14 6 10 7 5 4 4 4 4 4 4 5 8 18 35 60 72 79 78 78 77 71 69 69 76 83 92 96 92 95
20 20 27 44 45 34 29 50 99 100 99 99 98 87 34 14 9 7 6 6 6 5 5 5 6 5 7 11 35 77 88 73 67 76 82 85 92 98 96 95 91 90 98
19 16 17 17 18 35 41 32 36 41 64 98 99 98 83 68 64 74 59 51 32 27 34 44 43 39 38 45 59 66 68 75 82 94 100 100 96 94 93 98 96 97 100
19 20 18 14 16 16 15 24 36 29 25 30 32 54 94 99 99 96 95 94 87 93 99 98 85 69 57 56 67 76 87 91 91 96 96 96 97 98 99 96 96 98 100
14 13 12 14 14 13 14 15 14 14 29 30 25 19 16 38 58 62 72 97 91 80 92 97 98 98 93 93 92 96 97 97 96 96 96 97 98 98 97 100 99 96 93
10 8 8 8 9 11 12 12 12 13 13 11 15 25 29 29 24 19 26 41 44 40 42 41 46 68 90 99 97 93 94 95 93 93 85 65 42 26 18 14 14 13 13
Wind_Speed
42 42 44 45 45 46 45 40 42 44 48 50 48 49 50 52 54 53 50 51 51 57 61 59 60 53 48 44 46 45 44 41 38 47 55 53 51 52 54 55 54 53 52
43 45 43 42 40 36 38 41 44 48 49 55 45 35 33 34 32 35 47 55 56 53 50 55 61 62 61 54 50 52 50 48 41 44 56 55 53 52 55 57 57 54 52
44 39 33 32 34 37 38 46 49 56 42 28 29 24 27 27 31 30 27 29 46 54 54 54 50 58 61 61 57 57 53 51 46 46 58 58 55 52 56 59 58 55 52
35 30 33 36 35 37 43 52 49 32 29 30 30 33 37 34 27 25 26 25 24 37 54 59 57 55 56 61 60 60 54 53 50 49 61 60 57 54 59 61 59 56 53
29 34 34 36 37 45 49 46 35 28 31 32 32 31 31 24 17 16 22 23 21 20 31 59 60 58 61 59 65 66 60 56 55 52 64 63 58 57 61 62 59 56 52
36 34 35 39 50 53 46 32 34 30 35 33 33 38 30 13 8 11 17 20 17 22 21 39 59 63 63 60 65 63 64 60 58 57 67 64 60 60 62 60 58 55 53
34 35 39 50 53 49 37 34 35 35 34 32 37 39 30 12 3 6 16 22 23 21 20 33 43 63 67 59 64 67 68 63 59 64 69 65 61 62 63 60 57 55 55
39 37 46 53 53 45 37 37 38 37 36 32 36 39 37 25 12 7 16 26 28 25 28 34 44 49 63 69 71 70 68 65 63 70 72 66 64 64 63 59 56 55 55
40 42 50 56 56 48 39 38 41 39 38 37 37 40 38 30 18 20 22 31 35 36 40 43 46 52 60 71 71 72 69 62 69 73 70 66 64 64 62 57 52 53 51
45 46 52 59 58 52 38 39 42 42 40 40 42 43 41 41 30 22 24 35 42 44 47 46 50 55 62 70 71 68 64 68 74 76 71 68 65 65 63 65 63 58 58
44 48 54 57 59 58 44 41 42 43 44 42 41 42 47 45 45 30 28 36 48 48 56 52 51 53 59 61 63 64 69 74 78 74 71 67 65 63 61 65 56 48 43
44 50 55 58 59 57 49 45 47 45 44 40 44 44 45 50 49 51 40 44 49 54 61 59 54 55 60 59 64 68 71 78 76 72 68 65 64 63 60 60 57 49 43
44 44 51 59 61 56 53 49 47 46 46 46 42 48 51 53 53 53 58 55 56 59 65 64 60 58 61 64 67 71 78 76 73 69 66 65 63 61 60 59 55 43 47
46 40 47 57 63 58 56 55 50 48 47 49 45 43 48 52 56 59 60 61 58 60 61 60 65 62 66 66 72 77 76 73 70 68 66 64 63 58 61 57 45 48 42
45 45 42 48 54 62 59 60 54 53 52 52 50 48 46 46 50 55 59 61 63 66 67 67 67 68 73 77 77 75 73 71 67 65 62 59 59 55 55 45 46 46 45
57 42 46 46 46 55 59 62 58 56 54 54 54 53 53 53 54 55 56 56 58 62 66 69 74 76 76 76 74 73 71 68 64 61 60 57 53 53 49 44 40 35 35
51 56 41 42 45 43 55 59 63 58 56 56 55 55 56 59 60 61 62 65 70 73 74 76 76 76 75 73 71 70 66 63 61 58 56 53 52 49 45 39 36 37 30
42 52 59 47 48 45 47 54 59 65 61 56 57 57 58 61 65 68 71 75 75 73 73 72 71 71 70 68 67 65 62 60 58 54 52 51 48 45 42 40 34 32 26
40 42 52 60 53 50 44 48 53 59 61 60 58 57 58 58 60 64 68 70 69 67 67 66 65 64 64 64 62 58 57 56 53 55 54 49 45 38 35 35 32 32 24
40 41 43 46 56 51 49 44 43 47 54 57 54 55 56 57 59 61 62 61 60 59 58 58 57 57 56 55 54 54 50 48 48 46 44 42 39 36 29 32 26 21 20
37 40 41 42 42 45 54 47 41 40 39 45 50 49 51 52 52 52 51 50 48 47 49 51 52 52 51 50 49 47 42 38 42 39 34 37 38 35 27 22 21 20 19
33 35 36 38 40 42 43 45 51 44 43 37 40 44 45 46 48 47 45 44 43 44 45 44 43 43 41 40 44 42 37 35 34 32 30 30 26 25 23 22 19 18 19
29 30 31 33 34 35 38 39 40 45 50 50 40 35 37 38 38 41 42 40 40 38 36 35 32 31 32 33 32 29 27 27 30 30 26 20 19 22 22 21 15 17 17
22 24 26 27 28 30 31 32 33 34 36 38 40 45 43 34 29 29 28 27 30 30 29 29 28 27 26 27 27 25 25 23 22 23 21 19 17 18 18 16 16 16 18
15 16 17 19 21 23 24 25 27 27 28 30 28 28 29 32 35 40 41 35 37 41 37 30 23 20 20 22 23 24 25 22 23 16 13 12 15 14 15 14 14 14 13
10 12 12 12 13 14 16 18 20 21 22 23 22 23 24 24 23 23 24 24 25 25 25 25 26 27 26 25 23 23 21 21 19 18 16 15 14 12 11 11 11 13 14
Wind_Direction
320 316 314 312 308 307 310 311 308 302 298 296 293 289 284 279 273 266 254 248 246 242 236 232 228 224 215 213 210 205 200 200 202 200 197 195 196 195 194 191 189 190 192
322 322 319 313 316 319 319 316 313 306 305 309 315 310 301 294 285 266 252 249 243 237 231 228 224 221 220 213 210 204 201 198 194 197 193 192 192 192 189 187 187 188 192
330 331 330 329 330 327 323 319 317 323 324 328 325 324 320 318 291 265 261 251 240 234 225 223 218 214 214 209 208 200 195 194 193 196 189 189 189 188 185 183 185 188 191
344 343 345 345 337 334 330 328 330 337 339 330 321 310 309 306 296 267 248 240 237 232 221 218 209 206 202 200 200 190 191 192 192 191 185 184 185 184 180 181 183 186 190
357 356 355 346 342 340 340 339 349 350 348 343 337 333 324 308 280 243 226 220 219 215 216 205 203 199 195 197 193 192 189 186 187 186 181 181 181 180 178 180 182 183 183
7 3 359 355 360 354 350 356 2 357 354 357 352 349 341 322 268 237 223 207 194 200 188 196 193 193 196 193 183 182 183 183 185 184 178 178 178 177 177 178 180 180 177
15 12 6 4 4 1 3 10 10 8 8 6 7 10 13 6 326 217 203 191 180 183 171 179 183 187 181 180 182 179 177 178 181 177 175 175 174 175 175 175 176 177 170
21 14 10 12 12 10 19 20 18 17 19 16 14 21 30 37 49 142 165 168 170 160 149 144 163 169 176 175 174 172 171 173 174 175 171 172 171 173 171 172 173 174 169
22 19 18 20 22 21 25 27 27 26 28 28 25 33 37 41 58 82 138 154 157 153 144 139 140 149 160 167 168 166 169 170 171 168 168 168 169 170 168 166 167 170 165
24 24 25 27 29 28 31 32 32 36 36 41 40 41 46 50 64 94 111 148 150 150 150 142 140 142 149 155 158 163 165 167 166 164 166 165 166 166 165 158 150 159 163
31 29 30 28 35 33 35 35 40 41 44 47 45 48 54 54 62 87 110 134 149 150 150 145 139 138 143 151 155 159 160 162 160 161 162 162 162 163 163 166 169 161 170
35 37 31 33 38 41 41 44 47 46 47 51 54 57 61 60 64 74 98 119 135 147 148 145 147 146 146 147 151 152 156 155 155 158 158 159 159 161 162 163 160 161 165
37 40 35 36 40 44 44 40 44 46 50 56 64 67 70 70 72 76 88 103 117 129 141 146 148 147 148 146 148 150 149 150 153 154 155 156 158 159 160 160 167 167 167
44 37 41 41 40 45 49 44 44 45 51 56 67 75 75 75 79 83 88 100 113 118 130 140 138 136 138 141 144 144 145 148 150 152 154 155 156 157 158 158 162 161 156
48 44 42 44 41 43 50 52 49 51 53 57 66 74 80 82 87 91 93 97 102 109 118 124 129 132 136 137 138 140 143 146 149 150 150 152 156 159 159 156 152 157 163
47 50 45 45 45 44 47 55 54 57 59 60 64 72 81 87 91 96 99 103 107 112 117 123 127 129 130 133 136 139 142 145 146 145 149 152 155 156 158 161 161 162 167
40 52 53 50 44 48 53 55 59 60 64 68 71 75 79 85 92 98 102 106 111 115 118 120 122 125 129 133 136 139 141 143 143 145 147 150 153 154 155 160 165 164 162
48 43 55 60 52 55 62 62 62 62 63 69 76 80 87 93 98 103 108 112 114 117 118 119 123 126 129 132 136 139 141 142 144 146 146 144 146 149 157 155 159 160 162
53 53 47 52 65 58 60 62 69 68 66 64 73 81 89 92 98 105 110 112 113 116 119 122 125 128 132 135 138 138 139 141 142 145 147 150 149 147 155 164 166 165 176
56 56 58 54 50 64 64 65 67 68 72 73 71 77 86 95 101 105 108 112 113 115 117 120 124 128 132 132 134 139 141 141 143 147 154 159 160 159 157 158 164 172 175
58 59 59 59 61 56 53 68 68 69 77 77 83 83 87 90 95 100 105 107 109 112 117 122 126 130 133 133 134 136 138 142 147 151 152 158 165 168 164 173 178 179 181
55 58 61 62 61 62 65 59 69 76 74 80 87 89 92 97 98 97 98 102 108 114 117 118 120 125 129 134 137 135 137 143 151 151 148 152 156 163 171 169 178 187 201
53 54 56 59 63 65 66 69 70 70 69 76 83 94 103 102 101 104 108 110 113 114 114 116 117 120 125 134 144 146 146 146 148 155 155 160 170 178 185 187 177 184 206
48 48 50 53 58 62 66 70 73 75 74 76 77 74 81 95 106 111 111 115 121 123 121 122 124 128 135 140 144 149 148 146 152 160 170 173 169 174 179 193 213 217 226
30 37 44 47 51 55 61 66 70 75 81 84 85 83 82 88 92 90 90 102 102 98 100 109 123 136 147 153 160 159 162 163 161 169 185 187 194 189 191 197 204 205 207
1 10 22 37 45 49 54 59 64 70 75 79 86 92 95 96 97 101 105 108 109 110 110 112 112 113 116 125 134 141 148 154 155 155 152 153 158 169 183 199 214 227 237